Wind_Speed
19 22 25 26 27 27 24 20 17 15 15 16 18 17 16 18 20 22 23 21 20 22 23 22 19 17 15 14 14 14 16 13 11 10 10 7 6 6 6 7 10 13 14
20 22 25 26 27 26 23 20 18 18 18 19 20 19 20 20 21 22 22 22 21 23 25 23 21 20 19 16 16 18 17 14 12 11 12 10 8 8 8 7 9 11 13
22 23 24 25 26 26 23 21 21 23 23 22 22 21 21 21 21 22 22 23 23 24 25 25 24 22 23 21 20 20 19 18 14 11 13 14 12 12 11 11 11 12 13
23 25 26 25 24 23 22 23 24 25 25 24 22 20 20 21 22 21 21 23 24 26 27 26 23 23 24 22 22 23 22 19 17 16 15 15 14 14 14 14 13 12 14
23 27 29 27 25 24 24 25 26 27 26 24 22 20 20 20 20 19 21 23 23 25 27 26 24 24 25 24 22 23 22 20 19 18 16 15 16 15 15 15 14 14 14
25 26 27 27 26 25 25 26 26 25 25 24 23 23 21 19 19 19 22 23 23 25 27 26 27 27 27 26 23 23 22 19 19 19 17 16 17 16 16 17 17 16 16
28 27 26 26 26 26 24 22 21 21 21 21 22 22 21 18 17 17 20 22 23 26 28 27 29 27 26 27 26 27 27 24 22 22 20 20 19 18 18 18 18 16 16
30 29 28 27 26 24 20 19 19 19 18 18 19 19 18 17 16 16 18 19 21 26 27 26 28 28 27 27 27 27 27 26 25 25 24 24 24 22 20 19 18 16 16
29 28 29 28 22 18 16 16 18 18 17 16 15 15 16 16 16 17 18 19 20 22 25 25 26 27 30 31 31 30 29 28 27 27 26 25 25 23 22 22 21 19 18
29 27 26 24 18 15 15 16 17 17 17 16 14 14 14 15 16 18 19 20 21 22 25 26 26 27 29 30 30 31 31 32 31 30 30 29 26 23 22 23 23 23 22
24 23 19 17 15 15 15 16 16 16 16 16 16 15 16 16 17 18 20 21 22 23 25 27 29 29 29 29 28 28 27 27 27 27 30 32 30 25 23 23 23 24 25
22 22 18 16 15 16 16 17 17 16 17 17 17 17 17 18 18 18 19 21 23 23 24 25 26 27 27 26 25 24 21 22 23 25 28 31 29 24 21 20 22 23 23
25 26 23 20 18 18 19 19 20 19 20 20 19 18 18 18 18 17 18 19 21 22 22 22 21 22 23 23 23 22 21 20 20 21 23 24 23 22 20 19 20 21 23
26 26 25 23 21 22 23 24 24 25 25 24 23 21 19 18 17 17 18 19 20 21 20 20 21 22 21 21 21 22 23 22 20 19 19 21 23 23 21 20 20 21 22
24 21 20 20 21 23 26 28 28 29 28 27 26 24 23 21 20 20 19 19 18 19 21 20 22 24 24 21 21 22 23 23 23 23 22 24 25 25 24 21 20 20 22
23 20 17 18 19 23 26 28 29 29 28 27 26 26 26 26 24 23 21 20 19 19 19 19 19 22 23 23 22 21 22 24 26 26 26 27 27 26 24 21 19 20 22
23 20 19 19 21 24 27 28 29 28 27 26 26 27 28 29 27 25 24 23 22 21 19 18 19 20 22 23 23 22 22 23 25 28 30 30 28 27 26 23 21 21 22
20 20 22 25 27 28 28 27 26 25 25 25 27 28 29 29 28 27 27 27 25 22 20 20 19 20 22 23 24 24 24 24 25 26 28 31 31 29 26 24 23 23 23
20 24 27 28 29 29 28 25 24 24 24 24 24 25 27 27 27 27 29 29 27 25 23 22 22 21 21 23 24 24 23 24 24 25 25 28 29 28 27 26 25 25 25
23 24 26 27 27 25 24 23 23 23 22 23 23 25 27 28 28 30 31 31 29 27 26 24 24 24 22 21 24 25 24 24 24 24 24 24 25 27 28 28 27 26 26
20 21 23 23 22 22 22 22 22 23 24 25 26 28 30 30 31 32 32 31 30 28 25 24 24 24 23 21 21 23 24 25 26 25 24 23 23 26 28 29 28 27 28
17 18 18 19 19 20 20 21 22 23 24 25 26 27 29 30 31 32 32 32 30 27 26 25 25 24 23 21 20 20 22 25 27 27 27 26 26 27 28 28 28 28 28
15 16 17 18 19 20 21 21 21 21 22 23 24 26 28 29 30 30 30 30 28 25 25 25 26 25 23 22 21 21 21 22 25 27 28 28 29 29 29 29 29 29 30
15 16 17 18 19 20 20 19 18 18 20 20 20 20 21 23 25 26 26 26 24 23 24 24 25 24 22 22 21 21 21 20 21 22 25 27 29 29 29 29 30 30 30
14 15 16 17 18 19 19 18 17 16 17 16 14 14 15 14 13 14 16 18 20 21 21 21 21 21 22 22 21 21 22 22 22 23 24 25 27 28 28 28 28 29 29
12 13 13 14 17 18 17 16 14 13 14 13 12 12 13 10 4 2 8 13 16 17 18 18 19 20 21 21 21 21 22 23 23 23 23 23 24 24 25 25 25 26 27
Wind_Direction
313 316 317 317 316 316 312 304 295 291 293 296 297 294 287 283 275 265 261 254 243 233 230 231 229 225 222 224 224 226 231 234 238 245 242 228 228 244 236 219 216 219 223
317 316 313 312 311 311 307 300 290 287 293 296 295 291 289 285 279 267 256 245 239 233 228 227 229 231 225 216 216 221 232 239 246 252 247 241 239 248 248 243 232 228 228
313 309 305 304 304 302 299 293 287 287 292 292 290 289 291 290 284 272 253 234 232 232 227 223 225 229 226 224 221 224 232 240 245 251 253 253 255 256 252 250 245 241 239
308 307 305 301 298 295 294 292 289 289 289 289 289 293 295 293 285 270 244 232 230 228 224 221 223 224 224 228 229 234 239 240 246 253 255 253 256 259 256 249 246 247 249
312 313 311 306 298 291 288 288 287 286 286 287 287 291 295 293 282 262 237 231 229 224 221 219 220 220 223 226 227 234 238 238 245 250 250 248 249 249 249 249 246 247 252
312 313 311 307 301 296 291 290 288 285 283 282 282 285 289 291 283 260 238 232 229 224 220 218 220 222 224 225 225 231 235 238 242 245 247 245 246 247 248 250 252 252 250
308 307 304 303 301 299 296 293 293 292 289 286 284 284 286 286 280 262 239 233 229 225 223 222 223 226 228 227 226 229 234 240 242 242 245 244 247 253 254 252 252 256 256
304 302 300 298 296 294 294 296 295 294 293 291 286 284 283 279 273 266 251 244 236 228 227 229 227 230 229 228 231 232 234 238 241 243 244 243 246 254 256 252 250 251 254
295 296 298 298 291 288 293 299 297 294 293 291 290 289 285 277 268 264 258 251 248 243 237 235 236 237 236 233 235 239 239 239 241 243 243 239 241 247 250 248 247 248 250
296 295 291 290 284 285 294 302 302 298 293 288 287 287 284 276 264 258 257 254 254 251 244 242 243 242 238 235 236 240 243 244 243 243 241 237 238 247 251 249 248 252 253
304 301 286 279 279 285 297 306 307 302 294 286 282 281 278 274 269 263 257 256 254 249 245 247 248 245 241 238 238 239 236 238 240 239 236 236 241 248 253 251 250 254 252
301 306 298 285 280 285 296 303 304 300 294 289 286 281 277 273 270 265 259 256 248 247 251 253 246 242 238 236 233 228 228 232 231 231 230 231 236 240 245 245 247 250 248
301 305 299 288 282 285 292 299 301 298 293 290 287 286 281 275 269 261 257 257 254 254 257 250 239 234 231 231 229 228 231 234 233 228 224 225 231 234 238 243 246 247 248
305 301 292 284 282 286 293 297 298 296 292 290 289 287 285 282 277 270 265 264 264 259 258 251 243 239 238 238 238 237 236 236 237 234 227 227 229 232 238 244 244 244 243
301 295 288 286 288 292 296 297 296 293 291 290 289 287 285 286 288 286 279 273 268 262 258 253 250 247 246 247 248 243 240 238 237 236 232 230 230 234 240 241 237 237 238
291 287 289 294 296 298 298 296 292 290 289 287 286 284 283 284 285 284 278 271 264 258 253 251 251 249 248 248 250 246 241 237 236 234 233 233 232 235 237 233 229 232 238
285 285 289 293 295 297 295 292 288 286 283 279 279 279 278 278 278 276 273 270 267 260 252 248 249 249 247 246 246 242 236 232 232 232 233 234 232 233 235 233 231 234 238
281 284 290 294 297 298 296 292 286 282 276 274 274 274 274 273 273 272 270 269 269 266 258 250 247 250 248 243 238 236 231 227 227 229 233 234 229 227 231 233 233 232 235
285 289 292 295 297 298 297 294 289 283 278 275 273 273 272 271 270 269 269 270 269 267 260 250 244 245 246 242 236 232 227 224 223 224 228 228 222 223 229 235 236 234 235
291 291 293 296 299 300 299 296 292 286 281 278 276 274 274 271 269 267 268 269 267 264 256 246 239 239 242 244 241 234 230 224 221 222 223 220 219 223 228 233 236 237 238
297 298 299 302 304 305 304 300 295 290 286 284 282 278 274 270 266 265 265 263 261 257 251 246 240 238 238 243 244 239 234 230 226 223 222 221 222 225 227 229 232 238 242
304 303 303 305 306 306 306 303 299 296 294 290 286 282 277 272 267 263 260 258 255 250 250 248 242 239 239 241 244 244 239 234 230 229 228 229 232 233 231 232 236 240 243
311 309 309 309 309 309 309 308 306 304 302 299 294 288 281 274 268 262 256 252 250 246 245 243 238 236 237 239 241 244 244 241 235 232 232 234 236 237 236 237 241 243 243
314 313 311 311 312 314 317 317 314 311 310 309 306 302 295 284 271 261 251 244 239 233 231 232 230 229 231 236 238 236 239 243 242 239 240 241 241 242 242 243 246 247 245
315 317 318 319 324 328 329 325 320 318 321 325 328 330 327 312 282 256 238 225 217 215 218 221 223 224 228 234 235 232 235 240 244 245 247 247 247 248 248 247 248 247 242
323 327 330 336 341 341 334 328 325 328 337 346 353 358 2 4 12 180 190 193 199 205 211 217 220 222 226 231 233 231 235 241 246 247 248 250 251 252 252 251 250 247 243
Height
5854 5851 5848 5845 5843 5840 5838 5836 5833 5831 5830 5829 5828 5827 5826 5826 5826 5826 5826 5826 5827 5829 5831 5836 5839 5840 5841 5842 5843 5846 5848 5850 5850 5851 5852 5854 5855 5856 5857 5858 5859 5861 5862
5849 5846 5843 5840 5838 5836 5834 5832 5830 5829 5827 5825 5824 5823 5822 5821 5820 5819 5820 5820 5821 5823 5826 5831 5834 5836 5838 5839 5841 5843 5845 5847 5848 5849 5850 5851 5854 5855 5856 5857 5858 5859 5859
5844 5842 5839 5836 5833 5831 5830 5828 5826 5824 5822 5821 5819 5818 5817 5816 5814 5813 5813 5814 5816 5818 5820 5824 5829 5832 5834 5836 5838 5840 5842 5844 5845 5846 5848 5849 5850 5852 5854 5855 5856 5857 5857
5840 5837 5834 5831 5829 5827 5825 5823 5821 5819 5817 5815 5813 5812 5812 5810 5808 5807 5807 5809 5811 5812 5814 5818 5823 5826 5829 5831 5833 5836 5838 5840 5841 5843 5845 5847 5848 5849 5850 5852 5854 5854 5854
5835 5830 5827 5825 5824 5822 5820 5818 5815 5813 5810 5809 5808 5808 5807 5805 5803 5802 5802 5803 5805 5807 5809 5812 5817 5820 5823 5826 5829 5831 5833 5835 5837 5839 5841 5843 5845 5845 5845 5847 5849 5850 5851
5828 5825 5822 5819 5817 5816 5814 5811 5808 5806 5804 5803 5802 5802 5801 5800 5799 5798 5797 5798 5800 5802 5804 5807 5811 5815 5818 5820 5823 5826 5829 5831 5833 5835 5836 5838 5841 5842 5841 5842 5844 5846 5847
5823 5820 5817 5814 5811 5809 5807 5804 5802 5799 5798 5796 5796 5796 5795 5795 5794 5793 5793 5794 5795 5797 5800 5803 5805 5808 5811 5814 5817 5821 5824 5826 5828 5830 5832 5834 5836 5837 5838 5838 5840 5841 5842
5817 5815 5812 5809 5806 5804 5801 5799 5797 5794 5793 5791 5790 5790 5790 5790 5790 5790 5790 5790 5791 5793 5794 5797 5799 5802 5804 5807 5811 5814 5817 5820 5822 5824 5826 5829 5831 5832 5834 5835 5836 5837 5838
5813 5810 5806 5803 5801 5799 5797 5795 5792 5790 5788 5786 5785 5784 5784 5784 5785 5785 5786 5786 5787 5788 5789 5791 5794 5796 5798 5800 5803 5806 5809 5813 5816 5818 5820 5823 5825 5826 5828 5830 5832 5833 5834
5807 5804 5800 5798 5796 5795 5793 5790 5787 5785 5783 5782 5781 5780 5779 5779 5779 5780 5780 5781 5782 5782 5784 5786 5788 5790 5791 5793 5796 5799 5802 5805 5808 5811 5814 5816 5818 5821 5823 5825 5827 5828 5829
5800 5797 5795 5793 5791 5790 5788 5786 5783 5781 5779 5777 5776 5776 5774 5773 5773 5773 5774 5775 5776 5776 5778 5779 5781 5782 5784 5787 5790 5792 5795 5797 5799 5802 5805 5808 5811 5814 5816 5819 5820 5822 5824
5795 5792 5790 5788 5787 5785 5784 5782 5780 5777 5776 5774 5772 5771 5770 5769 5768 5768 5769 5769 5770 5771 5772 5773 5774 5776 5778 5781 5784 5786 5788 5791 5792 5795 5798 5801 5805 5808 5810 5812 5814 5815 5817
5790 5788 5785 5783 5781 5780 5779 5777 5775 5773 5771 5770 5768 5767 5766 5764 5763 5763 5763 5764 5764 5765 5766 5767 5769 5771 5773 5776 5778 5780 5782 5784 5786 5788 5791 5795 5798 5801 5804 5806 5808 5810 5812
5785 5782 5779 5777 5776 5774 5772 5771 5769 5767 5766 5764 5762 5761 5761 5760 5759 5758 5758 5758 5759 5759 5761 5762 5764 5765 5768 5770 5772 5774 5776 5778 5780 5783 5787 5790 5792 5795 5798 5800 5803 5805 5806
5778 5776 5773 5772 5770 5769 5767 5764 5762 5760 5758 5756 5755 5754 5754 5754 5753 5753 5753 5753 5754 5754 5755 5756 5757 5759 5761 5763 5765 5767 5769 5771 5774 5778 5782 5785 5787 5790 5792 5795 5797 5799 5801
5772 5771 5769 5768 5766 5764 5762 5758 5755 5753 5750 5749 5747 5747 5746 5746 5746 5746 5746 5746 5747 5748 5749 5750 5751 5752 5754 5756 5758 5760 5762 5765 5768 5772 5775 5778 5781 5784 5787 5789 5791 5794 5796
5765 5765 5764 5763 5762 5759 5756 5753 5749 5746 5744 5742 5740 5739 5738 5738 5738 5738 5738 5738 5739 5740 5741 5743 5744 5745 5746 5748 5751 5754 5756 5758 5761 5764 5768 5771 5775 5778 5781 5783 5786 5788 5790
5760 5759 5758 5756 5754 5752 5749 5745 5742 5739 5736 5735 5734 5732 5730 5729 5729 5729 5729 5730 5731 5732 5733 5735 5737 5738 5739 5741 5744 5747 5749 5751 5754 5757 5760 5763 5767 5771 5774 5776 5780 5783 5785
5756 5754 5751 5749 5746 5743 5740 5737 5734 5732 5730 5728 5727 5725 5723 5721 5720 5720 5720 5721 5722 5724 5726 5728 5730 5732 5733 5735 5737 5740 5742 5744 5747 5750 5753 5755 5758 5762 5766 5769 5772 5775 5778
5750 5748 5745 5742 5739 5736 5733 5730 5727 5724 5722 5721 5719 5718 5716 5714 5713 5712 5711 5712 5713 5715 5717 5720 5723 5726 5727 5728 5730 5733 5735 5738 5740 5742 5745 5748 5751 5755 5759 5762 5764 5767 5770
5745 5742 5739 5736 5733 5730 5726 5723 5720 5717 5715 5713 5711 5709 5707 5705 5704 5703 5703 5703 5704 5706 5709 5712 5715 5718 5720 5722 5724 5726 5728 5730 5732 5734 5737 5741 5744 5749 5752 5755 5757 5759 5761
5740 5737 5734 5731 5727 5724 5720 5717 5713 5710 5707 5704 5701 5698 5696 5694 5693 5693 5693 5693 5695 5697 5701 5704 5708 5711 5714 5716 5718 5721 5723 5724 5726 5728 5731 5734 5738 5741 5744 5747 5748 5750 5752
5736 5733 5730 5726 5722 5719 5715 5710 5706 5703 5699 5695 5692 5688 5685 5683 5682 5682 5682 5684 5686 5689 5693 5697 5701 5704 5708 5710 5712 5715 5717 5718 5720 5722 5725 5728 5731 5734 5736 5738 5740 5741 5743
5732 5729 5725 5722 5718 5713 5709 5705 5701 5697 5693 5689 5685 5680 5676 5673 5670 5670 5671 5674 5678 5682 5686 5690 5694 5697 5701 5704 5707 5709 5712 5713 5715 5717 5720 5722 5724 5726 5728 5730 5731 5733 5735
5728 5725 5722 5718 5713 5708 5704 5700 5696 5693 5689 5684 5680 5675 5670 5665 5662 5661 5663 5667 5671 5676 5681 5685 5688 5692 5695 5698 5701 5704 5707 5709 5711 5712 5714 5715 5717 5718 5720 5721 5723 5725 5726
5725 5722 5719 5715 5711 5706 5702 5697 5694 5690 5686 5682 5678 5674 5669 5665 5661 5661 5662 5666 5670 5674 5678 5681 5684 5688 5691 5694 5696 5699 5701 5703 5705 5706 5708 5709 5710 5711 5712 5713 5715 5716 5718